OBJECT BD, 68467

Orbit data source: Space-Track

You're viewing an Uncataloged Satellite

Recently launched and/or uncataloged satellites may have evolving metadata. Metadata may include but not limited to: Owner, Maufacturer, Bus, Motor, and Mission.

OBJECT BD, 68467 is a satellite in SSO that was launched on Mon, 30 Mar 2026 UTC via an FALCON 9 launch vehicle from the Air Force Western Test Range (AFWTR). Unknown objects in Earth's orbit typically refer to objects detected orbiting the Earth but have not yet been identified or cataloged. These objects could be anything from previously untracked satellites, spent rocket stages, debris from satellite collisions, or even natural meteoroids temporarily captured by Earth's gravity.

Loading next visibility...
Identifier
68467, 2026-067BD
Orbit
SSO
Country
Flag of TBDTBD
Related business
None
Manufacturer
Unknown
Mission
Operational spacecraft
Bus & Motor
Unknown
Mass
Unknown
Launch date (UTC)
2026-03-30 (1 month ago)
Launch vehicle
FALCON 9
Launch site
Air Force Western Test Range (AFWTR)
Object type
Unknown
Shape & HBR
Unknown shape, 1.1 m
Radar Cross Section
RCS unknown

Expand to show TLE details & history
Last TLE update: 22 hours ago

TLE from 22 hours ago
0 OBJECT BD
1 68467U 26067BD  26126.83160974  .00013787  00000-0  68489-3 0  9991
2 68467  97.4397  85.8083 0005458 197.8831 162.2212 15.17769475  5668
Epoch: 2026-05-06T19:57Z
TLE epoch observation values (Epoch: 2026-05-06T19:57:31.081Z)
Latitude
0.00001°
Longitude
-78.25766°
Altitude
519.252 km
Speed
7.602 km/s
True Right ascension
05h 43m 13s
True Declination
0° 00' 00"
Sunlit
Object was in daylight at epoch
Visualization orbit readout
Latitude
Unknown
Longitude
Unknown
Altitude
Unknown
Speed
Unknown
Apparent Right ascension
Unknown
Apparent Declination
Unknown
Sunlit
N/A
Visualization observer readout
Local Sidereal Time
01:57:52
Azimuth
Unknown
Elevation
Unknown
Doppler factor
Unknown
Orbital elements
Apogee altitude
513.313 km
Perigee altitude
505.794 km
Semi-major axis
6,887.691 km
Eccentricity
0.00055
Inclination
97.4397°
RAAN
85.8083°
Arg. of periapsis
197.8831°
True anomaly
162.24028°
Mean anomaly
162.2212°
Eccentric anomaly
162.23074°
Mean motion
3.79693 °/min
Orbital period
94.81 mins
BSTAR
0.00068489
Loading maneuver chart data...
Computing Atmospheric mass density...
Loading historical data...
Loading historical data...
Loading historical data...
Loading historical data...
Loading historical data...
Loading historical data...
Loading historical data...

Documentation

Showing up to 5 results
|